Theta_e
311 311 311 311 311 311 310 310 309 305 304 303 303 303 303 304 305 309 310 312 313 322 351 351 350 347 352 352 350 348 350 352 353 353 356 353 354 350 348 350 348 347 347 345 348
310 310 310 310 310 310 309 309 308 307 305 304 304 303 303 306 312 314 315 312 313 325 350 349 353 350 353 354 349 345 347 349 343 347 352 353 354 351 352 350 351 348 347 347 348
310 309 308 310 310 309 308 306 304 304 303 305 305 304 304 310 313 309 318 319 312 327 343 350 351 350 352 350 352 346 353 346 343 342 350 353 354 350 353 352 350 350 350 348 348
309 306 305 307 307 307 305 303 303 303 304 306 307 306 308 314 312 317 318 325 322 338 348 346 353 350 345 343 352 352 347 349 344 341 349 354 351 352 350 347 346 346 347 348 348
306 304 305 305 305 306 306 305 305 303 304 307 311 310 314 316 310 316 317 323 338 343 342 339 350 344 333 334 342 351 348 342 343 341 349 350 352 352 351 348 345 345 347 349 349
305 305 305 305 305 305 305 306 305 304 304 307 312 313 312 303 310 312 312 322 328 339 336 326 340 328 324 321 332 334 344 342 335 337 345 351 351 351 350 347 347 347 347 348 348
306 305 305 305 305 305 305 305 306 307 308 309 313 313 317 305 311 313 320 323 319 329 322 323 323 326 320 321 321 325 328 330 337 338 346 349 354 353 349 348 349 348 347 347 347
305 305 305 304 304 304 305 305 306 311 314 316 315 315 308 309 310 311 319 325 319 324 323 324 322 320 320 320 321 321 322 324 325 338 342 349 357 351 348 350 351 349 348 348 347
305 305 304 304 304 304 307 307 314 316 313 316 315 316 311 315 320 313 312 313 325 324 323 322 321 320 320 320 319 317 324 323 325 332 336 347 343 341 347 349 353 351 349 349 348
304 304 304 303 304 304 307 314 321 321 318 319 320 318 316 317 322 322 315 313 315 316 320 322 319 319 316 317 320 322 321 322 326 326 334 338 336 341 349 348 352 351 350 350 349
303 303 303 303 303 304 306 309 305 308 307 321 320 319 318 318 320 319 316 315 315 317 318 320 320 321 320 318 320 321 321 324 323 327 335 333 338 350 349 349 351 351 351 350 349
302 302 302 302 302 305 307 305 305 304 306 307 307 309 315 315 316 317 316 314 315 317 317 316 322 321 320 319 320 320 321 321 321 322 324 324 336 351 350 351 351 352 351 351 349
302 301 301 302 302 303 304 305 304 306 304 308 308 310 311 311 314 315 315 314 316 316 318 321 318 320 321 320 321 319 320 321 322 322 324 336 336 350 351 349 348 347 349 349 350
302 302 301 301 302 303 303 304 304 305 306 311 309 309 312 311 313 315 316 317 317 319 315 317 319 321 318 320 320 318 319 321 321 321 322 332 334 343 352 352 349 347 345 347 347
302 302 302 302 302 302 303 304 303 303 317 318 311 311 311 313 315 315 318 318 317 317 316 318 318 319 320 322 319 321 320 320 320 320 321 326 334 335 347 354 352 349 347 345 344
302 303 302 303 303 303 303 303 304 311 317 318 314 313 312 312 312 317 318 319 317 318 318 318 316 319 319 319 319 320 321 316 316 317 321 320 325 324 341 352 352 349 348 347 346
302 303 302 303 303 304 304 302 307 312 313 317 315 314 314 314 313 316 317 320 320 318 318 318 318 318 317 318 318 319 317 319 319 320 324 318 324 325 332 339 345 348 347 346 346
302 302 302 304 303 304 304 304 309 312 312 313 314 314 316 313 314 314 316 322 320 319 318 319 320 318 317 317 318 318 316 318 320 319 322 317 322 323 325 335 337 340 342 342 344
303 302 303 304 303 305 301 306 308 310 312 313 313 315 314 313 314 315 314 320 322 318 320 318 320 320 318 319 319 317 319 315 315 316 316 318 320 324 325 327 336 337 337 338 339
303 300 302 304 303 305 305 307 307 309 310 311 313 313 313 312 314 313 314 318 320 319 315 319 322 320 319 319 318 316 315 319 311 320 319 316 320 324 328 327 329 332 336 337 336
302 298 302 303 303 301 304 306 309 309 310 310 311 311 311 314 314 313 313 317 318 319 317 315 317 319 319 320 322 316 316 314 316 313 318 317 318 318 325 325 326 328 333 336 337
298 299 302 304 301 300 305 305 310 311 308 309 309 311 312 314 314 314 318 317 315 315 321 320 311 318 319 320 321 322 319 312 317 315 314 314 318 318 320 324 326 326 328 333 336
298 300 303 303 302 302 302 306 308 310 310 309 309 312 312 313 312 315 316 314 312 314 322 318 316 315 318 318 318 320 318 317 316 311 317 318 319 318 317 320 321 326 328 334 336
297 301 298 301 299 303 303 304 307 308 310 309 309 311 311 312 312 314 315 314 312 315 319 314 314 315 320 319 318 318 319 318 318 320 320 319 318 320 318 319 320 322 325 327 331
299 302 302 301 301 304 302 303 306 307 307 309 311 309 308 312 312 313 311 311 311 314 311 311 316 317 317 318 319 319 320 320 319 319 320 321 320 318 318 318 320 319 325 330 333
303 304 303 302 305 304 302 302 306 304 306 307 311 309 305 309 311 311 309 310 311 311 310 308 314 316 318 318 318 319 319 320 319 319 319 320 318 317 318 317 319 321 324 329 332
303 303 303 304 302 304 304 304 304 303 305 307 307 307 305 309 307 306 306 306 307 309 309 310 312 315 317 317 318 320 318 319 319 319 319 320 320 318 317 317 318 320 319 322 327
Wind_Speed
26 26 26 26 26 25 24 23 23 23 22 21 21 21 20 21 21 14 9 21 16 13 24 23 12 17 11 2 2 1 4 4 3 5 3 9 5 5 5 10 4 5 6 13 29
26 27 27 27 27 27 26 26 25 24 23 21 21 20 19 18 17 14 33 20 18 26 29 24 11 16 3 5 3 3 3 7 6 5 6 12 7 10 4 10 2 6 14 29 29
28 29 29 28 28 29 28 28 28 26 25 23 21 17 15 12 5 8 6 6 25 32 34 26 21 8 3 3 5 5 6 5 4 5 9 13 9 7 10 8 7 16 22 23 27
29 31 31 30 31 31 31 32 31 30 27 23 19 15 8 2 6 3 3 6 33 38 28 17 14 7 6 7 7 4 11 6 7 4 8 12 10 8 12 4 8 20 27 24 21
32 34 34 35 35 35 34 37 34 32 29 22 17 11 1 2 11 9 6 8 33 31 28 12 19 6 7 6 6 7 10 6 10 6 12 9 15 13 14 4 16 18 22 23 19
35 36 37 38 40 40 40 41 38 33 27 23 14 5 3 6 9 7 10 19 35 30 20 11 14 8 4 5 8 4 12 15 7 9 9 13 8 6 9 12 17 21 20 20 21
34 37 39 42 44 43 46 42 35 30 25 20 13 11 3 15 5 11 13 21 37 36 11 15 11 10 5 3 6 5 6 3 8 8 6 7 3 12 5 15 18 20 17 17 19
36 38 41 44 47 49 43 37 33 19 5 6 15 11 8 7 9 27 14 14 30 28 17 30 14 5 3 3 7 3 1 1 1 8 6 13 13 17 14 18 18 20 17 17 17
39 42 44 47 49 50 31 30 8 11 8 20 13 5 9 3 6 16 25 11 26 27 13 6 6 4 2 2 5 5 4 5 5 10 5 9 7 16 19 20 19 18 18 17 16
39 42 44 48 49 45 37 8 7 9 10 2 5 1 6 5 4 5 19 26 6 8 3 4 3 4 3 6 11 6 4 4 5 2 4 9 13 5 21 22 22 20 18 18 18
39 41 43 47 50 33 33 3 5 3 4 7 3 5 5 3 4 6 11 13 7 5 9 6 5 13 10 5 5 5 4 4 2 2 4 7 6 9 16 16 19 20 20 19 21
40 41 44 47 46 17 14 6 7 4 11 14 21 17 23 5 5 4 22 9 7 7 9 5 17 10 9 7 8 5 5 8 4 6 2 4 8 10 17 23 24 22 20 22 19
40 41 45 48 30 16 12 8 15 11 4 9 8 7 6 13 11 8 16 7 6 9 17 19 5 12 12 7 10 5 13 6 5 4 2 4 6 7 12 2 12 15 19 17 18
39 41 45 50 7 28 11 11 29 5 3 7 5 7 5 9 6 11 19 9 5 21 9 6 8 18 8 13 12 9 6 6 7 4 4 3 5 5 13 20 16 15 17 18 19
39 41 43 37 15 10 12 27 31 4 6 1 2 6 5 7 1 7 11 3 10 9 9 11 15 15 17 14 10 8 8 9 6 6 2 3 1 6 10 14 17 18 19 20 21
40 43 44 22 17 14 24 30 4 3 9 3 3 1 4 4 3 4 6 1 6 6 1 8 5 14 11 7 11 8 4 6 5 4 7 10 9 5 8 19 20 17 20 21 21
41 45 33 16 9 23 22 6 2 5 6 4 4 5 5 4 2 5 9 14 11 8 11 5 13 3 6 8 5 7 8 2 2 3 11 8 8 14 10 16 22 25 25 24 23
41 42 23 9 24 18 7 4 5 2 3 4 5 8 2 7 3 6 9 16 6 5 7 10 6 18 6 10 11 9 9 6 8 4 7 7 9 7 11 11 18 20 24 21 20
38 34 11 9 26 9 4 1 4 3 7 9 7 4 5 5 4 5 4 8 7 3 7 8 10 3 9 6 17 6 11 11 5 2 2 5 6 6 5 11 14 19 17 19 21
30 12 14 12 22 1 4 4 5 6 12 6 4 5 5 6 6 7 5 8 11 6 5 3 1 6 18 6 8 10 9 4 1 6 6 5 4 6 10 13 14 9 16 19 19
11 4 6 30 4 4 2 4 7 12 13 6 6 6 4 4 4 5 6 5 11 10 7 5 4 4 9 11 18 4 6 3 6 6 7 0 6 8 10 14 18 19 17 18 18
4 3 16 22 4 2 3 9 9 11 9 5 4 3 3 4 4 5 4 4 10 8 4 1 3 7 6 2 9 21 9 7 6 8 6 4 7 4 10 11 14 14 14 12 13
3 3 9 10 4 4 6 5 4 9 9 8 4 5 4 3 3 4 4 5 12 9 4 6 2 2 4 8 3 5 10 12 10 3 12 8 7 6 4 7 9 10 9 9 12
3 5 4 4 2 4 5 5 6 8 5 9 9 6 6 5 5 4 6 4 7 5 9 3 2 3 3 2 4 6 7 8 17 14 15 18 9 3 6 9 10 10 10 10 9
2 1 0 4 4 7 5 4 7 7 4 5 4 13 7 3 3 3 5 5 5 7 5 3 0 2 3 10 7 12 15 14 12 22 15 13 18 10 9 11 15 12 7 7 10
1 2 1 4 6 7 6 4 5 8 3 8 4 13 13 3 2 2 6 2 4 6 5 5 2 2 3 9 10 11 14 16 15 10 11 18 9 9 15 10 7 11 9 10 10
3 3 1 2 3 3 2 3 10 8 9 6 8 12 9 3 5 9 8 9 8 2 2 3 2 2 4 4 10 16 10 15 9 8 9 16 10 7 9 10 14 13 10 12 11
Wind_Direction
355 352 349 346 344 340 337 335 334 333 332 330 330 330 324 318 309 296 241 248 225 197 159 154 157 152 141 145 108 91 78 279 264 187 212 144 121 141 92 137 176 173 138 146 154
354 351 348 345 341 339 335 333 331 329 328 327 328 331 328 327 316 264 278 254 212 180 155 160 171 152 164 172 153 124 158 219 233 212 176 161 131 144 112 156 179 100 112 141 152
352 350 347 343 340 337 334 332 330 328 327 323 322 327 330 330 306 245 352 204 189 180 166 157 148 142 161 146 184 184 217 223 277 210 163 162 159 152 141 206 200 159 146 153 156
349 350 349 345 342 339 337 335 331 326 322 315 313 320 331 315 268 155 55 173 175 173 157 151 161 164 187 195 180 218 240 250 290 220 160 188 150 181 173 215 177 162 153 155 167
351 351 351 348 344 339 336 334 329 322 315 307 302 308 325 222 246 252 295 100 167 170 167 167 167 170 176 196 157 237 249 171 231 165 184 145 196 175 205 102 132 150 157 162 169
350 350 349 348 344 342 338 330 323 315 307 297 283 248 192 235 264 261 239 168 175 183 185 165 185 177 192 204 184 211 252 258 243 241 172 170 199 152 193 132 137 157 171 171 175
350 349 348 346 344 341 334 327 322 310 298 279 238 188 213 233 196 142 172 171 175 181 168 190 182 183 171 289 240 266 277 250 197 213 190 138 159 222 149 147 155 167 179 182 186
351 349 348 345 343 342 335 335 321 311 284 217 177 167 238 255 229 241 159 175 180 185 197 198 192 142 174 297 354 318 97 78 207 181 201 149 218 220 165 160 170 175 181 191 196
350 349 347 344 343 342 339 339 13 46 88 128 135 191 259 253 227 235 205 175 173 192 218 161 137 199 111 122 353 340 231 197 306 188 135 169 235 218 171 172 173 185 184 193 198
348 347 344 342 342 342 338 8 74 80 102 63 99 309 249 214 194 176 189 181 159 137 92 160 132 169 156 159 209 202 209 239 230 206 153 196 247 193 176 176 180 184 188 193 200
347 347 346 341 341 341 343 46 8 3 340 222 202 275 292 268 258 177 157 153 118 131 160 186 174 214 199 186 160 189 205 215 233 232 159 218 238 195 180 184 185 188 188 195 207
348 347 347 341 343 0 23 73 93 288 298 248 246 250 253 342 344 224 146 143 158 176 127 119 220 200 179 196 185 189 229 254 305 263 168 255 233 188 182 197 193 186 191 198 205
348 347 348 342 342 356 356 94 342 351 238 282 212 231 202 165 218 233 164 152 153 151 186 200 221 169 184 179 195 207 216 186 206 343 276 106 309 170 213 215 204 203 197 204 205
344 344 346 345 6 339 316 324 337 321 310 269 242 259 134 135 231 203 186 148 173 194 131 208 219 188 165 204 179 214 177 156 164 129 218 142 265 249 204 208 202 199 202 201 211
340 341 343 345 307 303 307 321 331 157 317 110 195 164 166 189 148 209 167 144 171 165 149 209 183 184 202 199 175 218 151 188 163 191 175 231 38 259 172 208 215 210 210 206 206
335 337 340 340 310 316 323 320 321 56 248 343 68 62 134 236 287 91 185 198 145 126 309 189 192 185 194 170 177 161 102 54 48 112 242 216 186 236 183 211 217 219 218 213 208
334 336 340 335 299 321 326 337 79 198 332 13 343 13 327 310 244 145 188 190 169 146 194 196 222 193 151 162 164 145 113 301 290 199 239 181 190 228 211 205 207 212 217 213 207
335 335 349 4 360 336 350 62 216 279 347 342 339 305 107 352 357 335 148 192 208 107 154 181 220 205 184 190 185 182 153 163 204 209 228 125 226 242 192 213 215 220 217 214 210
335 338 330 346 356 349 57 177 222 348 346 329 313 51 354 350 347 338 1 202 199 180 162 173 239 216 170 160 165 192 194 178 81 268 42 221 297 312 183 205 211 222 217 214 210
334 332 304 340 338 4 67 282 289 3 349 341 355 28 12 337 23 21 29 339 337 7 345 221 232 204 205 127 188 167 150 150 12 196 238 276 248 219 195 202 209 221 216 222 210
335 354 339 340 11 45 95 276 303 338 333 332 345 331 3 359 357 359 3 46 7 336 28 14 126 304 121 201 193 129 181 128 153 162 206 291 254 207 206 215 208 213 211 213 209
20 339 341 353 46 16 342 309 318 338 355 315 268 273 309 6 350 15 49 44 2 325 20 6 111 221 201 228 224 214 188 149 146 222 247 167 245 245 227 202 202 228 225 218 205
347 290 343 7 53 345 305 291 327 347 335 330 321 27 355 26 8 8 14 73 8 10 29 331 359 75 58 295 165 190 216 193 217 90 211 193 241 261 220 207 232 236 243 221 218
25 347 324 28 28 352 329 300 350 342 347 334 332 43 11 12 11 351 355 26 336 6 24 40 79 101 216 299 358 314 294 205 208 224 231 233 267 309 249 235 241 238 236 231 232
29 297 6 308 333 331 323 285 319 355 345 359 347 19 354 327 1 17 356 338 321 17 19 82 352 337 238 281 252 248 262 269 244 224 221 234 236 229 242 223 235 231 244 242 243
306 308 314 288 292 313 327 300 323 351 306 327 325 342 335 279 9 315 18 318 278 343 14 359 253 147 274 274 300 284 267 258 253 256 258 253 247 197 218 220 254 247 235 221 230
253 276 200 320 306 293 269 295 311 332 289 230 317 324 325 344 309 262 223 243 240 293 339 327 212 129 254 304 322 296 258 242 238 209 208 234 227 244 239 214 224 243 231 228 234